TimeCDT,TemperatureF,Dew PointF,Humidity,Sea Level PressureIn,VisibilityMPH,Wind Direction,Wind SpeedMPH,Gust SpeedMPH,PrecipitationIn,Events,Conditions,WindDirDegrees,DateUTC
12:56 AM,28.9,25.0,85,30.13,10.0,SSE,4.6,-,N/A,,Clear,160,2014-04-05 05:56:00
1:56 AM,30.0,26.1,85,30.13,10.0,SE,5.8,-,N/A,,Clear,140,2014-04-05 06:56:00
2:56 AM,30.9,25.0,79,30.12,10.0,SSE,9.2,-,N/A,,Clear,160,2014-04-05 07:56:00
3:56 AM,30.0,25.0,82,30.10,10.0,SSE,6.9,-,N/A,,Clear,160,2014-04-05 08:56:00
4:56 AM,32.0,26.1,79,30.09,10.0,SSE,9.2,-,N/A,,Clear,160,2014-04-05 09:56:00
5:56 AM,30.9,25.0,79,30.09,10.0,South,9.2,-,N/A,,Clear,180,2014-04-05 10:56:00
6:56 AM,30.9,25.0,79,30.09,10.0,SSE,10.4,-,N/A,,Clear,160,2014-04-05 11:56:00
7:56 AM,32.0,26.1,79,30.10,10.0,SSE,6.9,-,N/A,,Partly Cloudy,150,2014-04-05 12:56:00
8:56 AM,35.1,28.0,76,30.10,10.0,South,11.5,-,N/A,,Clear,170,2014-04-05 13:56:00
9:56 AM,39.9,28.9,65,30.08,10.0,South,15.0,21.9,N/A,,Clear,180,2014-04-05 14:56:00
10:56 AM,46.0,30.9,56,30.06,10.0,South,16.1,-,N/A,,Clear,170,2014-04-05 15:56:00
11:56 AM,50.0,30.9,48,30.04,10.0,South,21.9,28.8,N/A,,Clear,180,2014-04-05 16:56:00
12:56 PM,55.0,32.0,42,30.00,10.0,South,21.9,28.8,N/A,,Clear,190,2014-04-05 17:56:00
1:56 PM,59.0,33.1,38,29.97,10.0,South,23.0,31.1,N/A,,Clear,180,2014-04-05 18:56:00
2:56 PM,61.0,32.0,34,29.94,10.0,South,26.5,33.4,N/A,,Clear,190,2014-04-05 19:56:00
3:56 PM,61.0,30.9,32,29.92,10.0,South,24.2,29.9,N/A,,Clear,190,2014-04-05 20:56:00
4:56 PM,63.0,30.0,29,29.89,10.0,South,25.3,34.5,N/A,,Clear,190,2014-04-05 21:56:00
5:56 PM,62.1,30.0,30,29.89,10.0,South,16.1,32.2,N/A,,Clear,170,2014-04-05 22:56:00
6:56 PM,61.0,30.0,31,29.88,10.0,South,17.3,-,N/A,,Clear,170,2014-04-05 23:56:00
7:56 PM,57.0,30.0,36,29.88,10.0,SSE,13.8,-,N/A,,Clear,150,2014-04-06 00:56:00
8:56 PM,52.0,32.0,47,29.90,10.0,SE,8.1,-,N/A,,Clear,140,2014-04-06 01:56:00
9:56 PM,48.9,32.0,52,29.91,10.0,SE,10.4,-,N/A,,Clear,140,2014-04-06 02:56:00
10:56 PM,48.0,30.9,52,29.91,10.0,SSE,13.8,-,N/A,,Clear,160,2014-04-06 03:56:00
11:56 PM,48.9,28.9,46,29.91,6.0,South,16.1,24.2,N/A,,Haze,170,2014-04-06 04:56:00